SCP
3 2 2 2 1 1 1 1 0 0 0 0 0 0 0 0 0 0 0 0 0 0 0 0 0 0 0 0 0 0 0 0 0 0 0 0 0 0 0 0 0 0 0
3 3 3 2 2 1 1 1 1 1 0 0 0 0 0 0 0 0 0 0 0 0 0 0 0 0 0 0 0 0 0 0 0 0 0 0 0 0 0 0 0 0 0
3 3 3 3 2 2 1 1 1 1 1 0 0 0 0 0 0 0 0 0 0 0 0 0 0 0 0 0 0 0 0 0 0 0 0 0 0 0 0 0 0 0 0
4 3 4 3 3 2 2 1 1 1 1 0 0 0 0 0 0 0 0 0 0 0 0 0 0 0 0 0 0 0 0 0 0 0 0 0 0 0 0 0 0 0 0
3 4 4 4 3 2 2 1 1 1 1 1 0 0 0 0 0 0 0 0 0 0 0 0 0 0 0 0 0 0 0 0 0 0 0 0 0 0 0 0 0 0 0
3 3 4 4 4 3 2 2 1 1 1 1 0 0 0 0 0 0 0 0 0 0 0 0 0 0 0 0 0 0 0 0 0 0 0 0 0 0 0 0 0 0 0
3 4 4 5 4 3 2 2 1 1 1 1 1 0 0 0 0 0 0 0 0 0 0 0 0 0 0 0 0 0 0 0 0 0 0 0 0 0 0 0 0 0 0
5 4 5 5 5 3 2 2 1 1 1 1 1 1 1 0 0 0 0 0 0 0 0 0 0 0 0 0 0 0 0 0 0 0 0 1 1 0 0 0 0 0 0
6 5 5 5 4 3 2 2 1 1 1 1 1 1 1 1 0 0 0 0 0 0 0 0 0 0 0 0 0 0 0 1 0 0 0 1 1 1 0 0 0 0 0
6 5 4 4 3 3 2 2 1 1 1 1 1 1 1 1 1 1 0 0 0 0 0 0 0 0 0 0 0 0 1 1 0 0 1 1 1 1 1 0 0 0 0
7 6 4 3 3 2 2 1 1 1 1 1 1 1 1 1 1 1 1 1 1 1 0 0 0 0 0 0 0 0 0 0 0 1 1 1 1 1 1 1 1 0 0
7 6 4 3 3 2 2 2 2 2 2 1 1 1 1 1 1 1 1 1 1 1 0 0 0 0 0 0 0 0 0 0 0 1 1 1 1 1 1 1 1 1 0
7 6 5 4 3 3 3 2 2 2 2 2 2 1 1 1 1 1 1 1 1 1 1 1 1 1 1 1 1 1 1 1 1 1 1 1 1 1 1 1 1 1 0
8 7 6 5 5 4 4 3 3 2 3 3 2 2 1 1 1 1 1 1 1 1 1 1 1 1 1 1 1 1 1 1 1 1 1 1 1 1 1 1 1 1 1
10 10 9 8 7 6 5 5 4 3 4 4 3 2 2 1 2 2 2 1 1 1 1 1 1 1 1 1 1 1 1 1 1 1 1 1 1 1 1 1 1 1 1
12 12 11 9 8 7 7 6 5 5 5 5 4 3 2 2 2 2 2 2 2 2 2 2 2 1 1 1 1 1 1 1 1 1 1 1 1 1 1 1 1 1 1
11 11 9 8 8 8 7 6 6 5 5 5 4 3 2 2 2 2 2 2 2 2 2 2 2 2 1 1 1 1 1 1 1 1 1 1 1 1 1 1 1 1 1
9 9 9 7 7 8 7 7 6 5 5 4 4 3 3 2 2 2 1 2 2 2 2 2 2 2 2 2 2 1 1 1 1 1 1 1 1 1 1 1 1 1 1
9 9 9 7 7 7 7 7 6 6 5 4 3 3 2 2 2 2 2 2 2 2 2 2 2 2 2 2 2 1 1 1 1 1 1 1 1 1 1 1 1 1 1
8 9 7 6 6 7 7 7 6 6 5 5 3 3 2 2 2 2 1 1 1 1 1 2 2 2 2 2 1 1 1 1 1 1 1 1 1 1 1 1 1 1 1
6 6 6 5 5 5 5 5 5 5 5 5 3 2 2 1 1 1 1 1 1 1 1 1 1 2 2 2 1 1 1 0 0 1 1 1 1 1 1 1 1 1 2
5 5 5 4 4 4 4 4 4 4 4 4 3 2 1 1 1 1 1 1 1 1 1 1 1 1 1 1 1 1 0 0 0 0 0 0 1 1 1 1 1 1 1
5 5 5 4 4 4 3 3 3 3 3 2 2 1 1 1 1 1 1 1 0 1 1 1 1 1 1 1 1 1 0 0 0 0 0 0 0 1 1 1 1 1 1
5 5 5 5 4 3 3 3 3 2 2 2 2 1 1 1 1 1 1 1 1 1 1 1 1 1 1 1 1 1 0 0 0 0 0 0 0 0 0 0 1 1 1
6 6 5 5 4 3 2 2 2 1 1 1 1 1 1 1 1 1 1 0 1 1 1 1 1 1 1 1 1 1 0 0 0 0 0 0 0 0 0 0 1 1 1
6 6 5 4 4 3 2 1 1 1 1 1 1 1 1 1 1 0 0 0 1 1 1 1 1 1 1 1 1 0 0 0 0 0 0 0 0 0 0 0 1 1 1
Wind_Speed
19 19 18 17 16 16 15 15 14 14 14 14 14 14 14 14 14 14 14 14 13 13 13 13 13 13 13 13 13 13 13 13 13 14 15 14 14 12 12 13 15 12 15
22 19 19 17 16 15 15 14 14 14 14 14 13 13 13 13 13 13 13 13 13 13 13 13 13 13 13 13 12 11 11 11 12 13 15 14 13 12 11 12 14 11 14
22 19 18 16 16 15 15 14 14 14 14 13 13 13 12 12 12 12 13 13 13 13 13 13 13 13 13 12 11 9 8 8 9 10 11 10 11 13 15 16 16 14 13
21 18 17 18 16 15 15 14 14 14 14 13 13 12 12 12 12 12 12 12 12 12 13 13 13 13 12 10 9 7 5 5 5 5 4 7 9 13 14 14 14 14 13
20 18 19 19 17 16 15 14 14 14 14 13 13 12 12 11 11 11 12 12 12 12 12 12 12 12 11 9 7 5 3 2 0 2 7 9 8 12 13 13 13 13 13
20 19 19 19 17 16 16 15 14 14 14 13 13 12 11 11 11 11 11 11 11 11 12 12 11 10 9 8 5 4 4 5 5 4 8 10 8 11 12 12 13 12 12
20 19 19 19 17 16 16 15 14 14 13 13 12 12 11 11 10 11 11 11 11 11 11 11 10 9 8 6 5 4 5 8 3 6 9 9 9 11 11 12 12 12 11
19 20 18 18 18 16 16 15 14 13 13 12 12 11 11 10 10 10 10 10 10 10 9 9 9 8 7 5 4 5 7 8 3 9 11 10 11 11 11 11 11 11 11
18 18 16 16 15 16 16 15 14 13 12 12 11 11 11 10 10 10 10 9 9 9 8 8 7 6 5 3 2 4 7 9 4 5 11 9 12 12 11 11 10 10 10
17 17 15 14 13 13 13 14 14 13 12 11 11 10 10 10 10 10 10 9 9 8 7 6 5 4 3 1 2 5 7 9 2 7 7 10 13 12 11 10 9 9 9
14 13 14 14 12 12 12 13 13 12 11 11 9 10 9 6 7 8 10 10 9 8 6 5 4 3 3 4 5 6 6 2 2 4 6 13 14 12 11 10 9 9 9
13 13 11 12 11 11 10 10 8 8 8 7 6 7 5 3 4 7 10 10 9 8 6 5 4 4 5 3 5 6 3 1 2 4 7 15 13 12 11 9 9 8 8
12 11 11 9 7 8 7 8 5 4 5 5 6 5 2 2 4 5 4 5 5 6 4 5 4 3 1 0 1 2 1 2 1 4 8 13 12 11 11 9 9 9 8
10 11 11 9 5 5 7 5 5 5 4 4 5 4 3 1 2 3 2 3 3 2 2 2 0 0 1 2 2 2 2 1 2 4 7 11 11 11 10 10 9 9 9
9 9 10 9 7 5 5 3 5 4 4 5 4 3 3 2 2 2 1 1 1 2 2 1 1 1 1 1 2 2 3 2 2 2 5 11 11 10 10 9 9 10 10
10 10 9 8 7 6 5 3 4 4 4 4 4 4 3 3 3 3 2 1 1 2 2 1 2 1 0 1 1 1 2 2 1 2 3 6 9 10 9 10 10 10 10
10 10 9 8 7 7 7 5 4 4 5 5 4 4 3 3 3 2 2 2 1 2 3 2 1 1 1 1 1 2 1 0 1 1 1 2 4 8 10 10 10 10 10
9 10 9 9 9 7 6 4 3 4 5 4 4 4 4 3 3 2 2 2 2 2 2 2 1 1 0 0 1 2 1 1 2 2 2 2 2 3 7 10 10 10 10
9 9 8 9 10 8 7 4 4 4 4 4 4 4 4 3 3 2 2 2 0 1 2 1 2 1 0 1 2 2 1 1 1 2 1 2 2 2 3 8 11 10 11
9 8 8 9 8 8 6 4 4 4 3 4 5 4 4 3 3 2 3 2 1 2 2 2 1 1 1 1 3 1 2 2 1 1 2 2 2 3 3 3 5 7 11
9 9 8 8 8 6 5 5 5 4 3 4 5 5 4 3 3 2 3 2 1 3 2 1 0 1 1 0 2 2 2 3 3 2 1 1 0 1 1 2 2 2 4
9 9 8 8 8 6 5 4 4 4 3 4 4 4 4 4 3 3 3 2 2 2 2 1 0 1 1 1 1 2 1 1 1 2 2 2 1 1 0 1 2 2 1
11 10 9 8 8 7 7 5 5 3 2 4 5 4 3 4 3 3 3 2 2 2 2 1 1 1 1 0 1 1 2 2 2 0 0 2 2 1 1 1 2 2 3
11 10 10 9 8 8 7 6 7 6 4 5 5 4 4 3 4 4 3 2 1 2 2 1 2 1 1 1 1 1 1 2 1 1 1 1 1 2 1 1 0 0 1
12 11 11 10 8 8 6 7 6 5 5 5 5 6 5 4 3 4 3 2 1 2 3 3 3 2 2 3 2 1 1 0 2 1 1 1 1 1 1 1 1 0 0
12 12 12 10 8 8 7 7 5 5 6 7 7 7 4 4 3 4 4 3 2 2 3 2 2 1 2 3 3 3 2 2 2 2 2 2 1 1 0 1 1 1 0
Wind_Direction
123 128 132 133 133 133 129 125 120 115 110 105 100 96 92 89 87 86 85 85 86 85 85 83 80 79 79 79 79 82 85 90 93 95 95 92 90 90 95 104 100 96 100
123 129 131 133 134 133 131 127 124 120 115 110 105 101 97 94 91 89 87 86 87 87 86 84 83 82 81 81 83 86 91 98 103 106 105 96 89 87 88 92 93 102 104
122 129 132 131 133 133 131 129 126 123 119 114 110 106 102 98 95 92 90 89 89 89 88 87 86 83 83 83 84 88 93 102 112 122 124 106 96 91 93 96 101 103 105
126 135 133 132 132 132 131 130 128 126 123 119 115 110 106 103 99 95 94 93 91 91 91 90 88 84 83 82 82 83 87 97 119 148 129 106 100 97 98 100 104 105 105
130 129 130 135 133 133 132 131 130 129 126 123 118 115 111 107 103 98 97 96 95 93 93 91 88 86 83 80 77 68 52 34 328 145 104 93 92 104 103 104 105 105 106
130 128 134 136 134 134 133 132 131 130 127 125 122 119 115 111 108 103 101 100 99 96 93 92 90 86 82 77 67 44 7 335 311 116 108 105 103 109 109 109 109 108 108
130 129 136 137 136 135 135 135 133 131 129 128 126 123 118 115 113 110 107 105 103 100 97 95 92 87 82 73 52 14 344 327 287 105 100 100 107 113 113 112 112 112 112
129 131 135 138 138 137 137 135 134 134 133 132 130 129 125 122 120 116 114 111 108 106 103 100 96 91 84 71 36 353 336 326 32 109 107 107 119 119 116 114 116 118 119
127 130 139 141 141 140 139 139 138 138 138 137 137 136 134 133 132 127 121 117 115 113 111 108 104 99 93 78 9 330 323 328 329 111 113 116 124 124 123 122 123 123 124
128 134 141 144 145 147 144 144 144 145 145 145 145 146 146 147 146 142 138 129 126 123 121 121 122 123 131 163 271 298 312 319 341 100 110 124 129 129 130 130 130 130 130
128 133 141 143 151 153 151 147 150 151 153 153 156 161 165 172 162 160 140 138 136 135 135 139 149 170 197 214 239 266 291 283 67 89 108 130 135 136 138 139 139 140 140
134 138 141 146 156 158 151 145 157 160 157 172 160 172 189 178 146 140 137 144 147 150 155 166 187 217 233 221 226 241 263 281 114 114 128 139 138 141 146 148 150 151 151
143 140 135 143 154 149 136 154 154 144 152 173 153 173 179 135 127 126 142 144 157 168 175 167 199 232 221 355 244 238 328 14 77 110 135 141 143 148 154 161 164 165 165
146 140 137 138 133 127 135 148 142 141 161 154 148 172 136 104 96 115 134 153 164 160 144 143 173 11 14 357 338 344 2 26 58 103 138 149 155 157 164 171 176 179 178
143 139 136 141 140 122 111 138 140 135 150 134 139 147 139 138 125 113 103 130 138 123 132 140 144 77 354 333 323 1 347 22 34 99 140 161 163 165 171 178 186 189 187
150 144 138 140 135 129 128 136 122 128 125 123 129 135 141 128 122 129 140 137 114 119 122 153 136 136 284 321 324 341 331 347 4 83 135 163 173 175 180 188 193 196 195
154 143 138 139 138 140 144 153 133 132 134 125 122 122 121 123 133 149 149 157 139 143 148 149 141 153 207 273 312 303 269 311 350 15 121 153 177 189 191 193 195 199 200
147 144 151 150 144 139 132 135 133 132 130 126 127 123 119 121 147 160 148 141 157 160 143 144 134 131 118 289 270 273 266 204 218 222 220 187 182 185 194 201 201 202 205
140 144 149 139 143 141 136 135 115 103 120 127 123 121 129 135 143 127 102 92 146 115 94 94 89 75 289 293 262 233 259 229 197 241 216 212 195 185 185 200 205 205 208
137 140 142 137 140 140 134 124 117 120 123 113 111 118 130 132 122 113 114 109 122 92 80 74 82 177 240 255 293 263 236 234 210 212 250 233 190 199 193 189 194 212 215
141 148 147 142 141 140 142 145 144 147 139 127 125 131 131 122 122 101 106 122 95 93 94 93 71 238 227 47 318 292 241 204 192 182 203 286 188 166 146 160 189 200 202
149 149 147 147 147 148 144 138 143 137 147 130 116 133 139 136 142 137 111 139 103 112 116 123 85 318 294 102 316 310 291 132 283 187 169 184 130 50 20 216 181 190 204
158 159 156 150 148 145 142 134 130 123 131 122 133 145 144 144 140 99 111 88 94 124 111 89 15 359 356 339 62 6 357 24 336 110 146 127 137 159 224 222 206 190 201
158 156 147 146 145 143 147 149 155 162 159 147 147 140 144 146 139 128 117 98 74 89 112 178 100 357 345 327 101 103 92 73 345 346 314 96 162 196 195 267 28 102 234
158 154 149 145 144 146 152 156 165 159 147 140 132 135 147 143 147 140 129 119 108 88 87 59 65 20 357 3 358 8 28 169 238 252 296 320 274 200 155 149 123 113 171
158 155 151 147 148 153 160 158 168 157 147 141 142 148 164 156 163 150 140 134 125 99 93 81 62 66 43 30 3 354 355 354 352 344 333 312 311 333 102 107 152 154 162